Location: Sternwarte_Laufen
(47.9344°N, 12.9346°E)
Time: 00:42:43
(UTC+02:00)

ISS - Pass Details

Date: 23 May 2017
Orbit: 402 x 408 km, 51.6° (Epoch: 27 May)

Event Time Altitude Azimuth Distance (km) Brightness Sun altitude
Exits shadow 01:15:05 19° 284° (WNW) 1,032 -1.7 -21.5°
Maximum altitude 01:17:07 46° 351° (N) 560 -2.8 -21.4°
Drops below altitude 10° 01:20:18 10° 66° (ENE) 1,467 -0.7 -21.4°
Sets 01:22:27 0° 73° (ENE) 2,327 0.3 -21.4°
